Location: Chequamegon National Forest
(46.1070°N, 90.8420°W)
Time: 08:49:46
(UTC-05:00)

ISS - All Passes

Search period start: 27 September 2016 00:00
Search period end: 07 October 2016 00:00
Orbit: 400 x 410 km, 51.6° (Epoch: 27 September)

Date Brightness Start Highest point End Pass type
(mag) Time Alt. Az. Time Alt. Az. Time Alt. Az.
27 Sep - 00:38:09 10° WNW 00:41:06 29° N 00:44:03 10° ENE night (unlit)
27 Sep - 02:14:46 10° WNW 02:18:01 55° NNE 02:21:16 10° E night (unlit)
27 Sep - 03:51:30 10° W 03:54:23 28° SW 03:57:15 10° SSE night (unlit)
27 Sep - 20:33:09 10° S 20:35:44 22° SE 20:38:20 10° E visible
27 Sep - 22:08:44 10° WSW 22:11:59 66° NNW 22:15:15 10° ENE night (unlit)
27 Sep - 23:45:53 10° WNW 23:48:51 30° N 23:51:48 10° ENE night (unlit)
28 Sep - 01:22:42 10° WNW 01:25:50 40° NNE 01:28:59 10° E night (unlit)
28 Sep - 02:59:13 10° WNW 03:02:25 48° SW 03:05:36 10° SE night (unlit)
28 Sep - 19:42:22 10° SSE 19:43:52 13° SE 19:45:23 10° ESE visible
28 Sep - 21:16:38 10° WSW 21:19:52 78° SSE 21:23:09 10° ENE visible
28 Sep - 22:53:34 10° WNW 22:56:35 33° N 22:59:37 10° ENE night (unlit)
29 Sep - 00:30:36 10° WNW 00:33:37 33° N 00:36:38 10° ENE night (unlit)
29 Sep - 02:07:04 10° WNW 02:10:21 82° SSW 02:13:38 10° ESE night (unlit)
29 Sep - 03:44:40 10° WSW 03:46:24 14° SW 03:48:07 10° SSW night (unlit)
29 Sep - 20:24:42 10° SW 20:27:49 45° SE 20:30:59 10° ENE visible
29 Sep - 22:01:14 10° W 22:04:22 41° NNW 22:07:30 10° ENE visible
29 Sep - 23:38:24 10° WNW 23:41:21 30° N 23:44:19 10° ENE night (unlit)
30 Sep - 01:14:58 10° WNW 01:18:14 64° NNE 01:21:30 10° ESE night (unlit)
30 Sep - 02:51:50 10° W 02:54:30 23° SW 02:57:11 10° SSE night (unlit)
30 Sep - 19:33:03 10° SSW 19:35:50 26° SE 19:38:38 10° E visible
30 Sep - 21:08:56 10° WSW 21:12:09 57° NNW 21:15:24 10° ENE visible
30 Sep - 22:46:08 10° WNW 22:49:04 29° N 22:52:01 10° ENE night (unlit)
01 Oct - 00:22:52 10° WNW 00:26:02 45° NNE 00:29:13 10° E night (unlit)
01 Oct - 01:59:25 10° WNW 02:02:32 39° SW 02:05:37 10° SE night (unlit)
01 Oct - 18:41:54 10° S 18:43:54 16° SE 18:45:56 10° E daylight
01 Oct - 20:16:44 10° WSW 20:20:00 87° NNW 20:23:17 10° ENE visible
01 Oct - 21:53:47 10° WNW 21:56:46 32° N 21:59:46 10° ENE visible
01 Oct - 23:30:44 10° WNW 23:33:47 35° NNE 23:36:51 10° E night (unlit)
02 Oct - 01:07:12 10° WNW 01:10:28 68° SSW 01:13:43 10° SE night (unlit)
02 Oct - 02:45:29 10° WSW 02:46:25 11° SW 02:47:21 10° SSW night (unlit)
02 Oct - 19:24:41 10° SW 19:27:53 56° SSE 19:31:06 10° ENE visible
02 Oct - 21:01:25 10° W 21:04:30 38° NNW 21:07:35 10° ENE visible
02 Oct - 22:38:32 10° WNW 22:41:29 31° N 22:44:28 10° ENE night (unlit)
03 Oct - 00:15:02 10° WNW 00:18:19 75° NNE 00:21:37 10° ESE night (unlit)
03 Oct - 01:52:06 10° W 01:54:30 19° SW 01:56:55 10° S night (unlit)
03 Oct - 18:32:53 10° SSW 18:35:50 32° SE 18:38:48 10° ENE daylight
03 Oct - 20:09:03 10° W 20:12:14 50° NNW 20:15:26 10° ENE visible
03 Oct - 21:46:15 10° WNW 21:49:10 29° N 21:52:07 10° ENE visible
03 Oct - 23:22:54 10° WNW 23:26:07 50° NNE 23:29:19 10° E night (unlit)
04 Oct - 00:59:33 10° WNW 01:02:31 32° SW 01:05:29 10° SSE night (unlit)
04 Oct - 17:41:28 10° S 17:43:50 19° SE 17:46:13 10° E daylight
04 Oct - 19:16:46 10° WSW 19:20:01 74° NNW 19:23:17 10° ENE visible
04 Oct - 20:53:53 10° WNW 20:56:51 30° N 20:59:48 10° ENE visible
04 Oct - 22:30:45 10° WNW 22:33:51 38° NNE 22:36:56 10° E visible
05 Oct - 00:07:14 10° WNW 00:10:27 56° SSW 00:13:39 10° SE night (unlit)
05 Oct - 16:51:04 10° SSE 16:51:54 11° SE 16:52:45 10° ESE daylight
05 Oct - 18:24:37 10° SW 18:27:50 68° SSE 18:31:05 10° ENE daylight
05 Oct - 20:01:28 10° W 20:04:31 35° NNW 20:07:34 10° ENE visible
05 Oct - 21:38:32 10° WNW 21:41:32 32° N 21:44:31 10° ENE visible
05 Oct - 23:15:01 10° WNW 23:18:18 87° NNE 23:21:35 10° ESE night (unlit)
06 Oct - 00:52:20 10° W 00:54:23 16° SW 00:56:26 10° S night (unlit)
06 Oct - 17:32:40 10° SW 17:35:44 39° SE 17:38:48 10° ENE daylight
06 Oct - 19:09:03 10° W 19:12:12 44° NNW 19:15:22 10° ENE visible
06 Oct - 20:46:14 10° WNW 20:49:10 29° N 20:52:06 10° ENE visible
06 Oct - 22:22:51 10° WNW 22:26:04 57° NNE 22:29:18 10° ESE visible
